This demonstration page uses our WeatherBlox Daily Observations layout. Learn more.

Hourly Observations for February 18, 2017

Temp ( °F °C ) Dew Point ( °F °C ) Humidity (%) Winds ( mph kmh ) Pressure ( in mb ) Visibility ( mi km ) Precip ( " mm )
12:54 am 00:54 Clear 37 2.8 32 0 82 82 Calm 29.76 1008 10 16.0934 0 0
1:54 am 01:54 Clear 34 1.1 29 -1.7 82 82 S 3 6 29.77 1008 10 16.0934 0 0
2:54 am 02:54 Clear 34 1.1 30 -1.1 85 85 Calm 29.77 1008 10 16.0934 0 0
3:54 am 03:54 Clear 35 1.7 30 -1.1 82 82 NW 3 6 29.77 1008 10 16.0934 0 0
4:54 am 04:54 Clear 30 -1.1 27 -2.8 88 88 NNW 3 6 29.78 1009 10 16.0934 0 0
5:54 am 05:54 Clear 30 -1.1 27 -2.8 88 88 N 5 7 29.8 1009 10 16.0934 0 0
6:54 am 06:54 Clear 29 -1.7 26 -3.3 89 89 Calm 29.82 1010 10 16.0934 0 0
7:54 am 07:54 Sunny 31 -0.6 27 -2.8 85 85 Calm 29.84 1011 10 16.0934 0 0
8:54 am 08:54 Sunny 39 3.9 32 0 76 76 Calm 29.86 1011 10 16.0934 0 0
9:54 am 09:54 Sunny 50 10 36 2.2 59 59 NNW 5 7 29.87 1012 10 16.0934 0 0
10:54 am 10:54 Sunny 56 13.3 35 1.7 46 46 E 8 13 29.87 1011 10 16.0934 0 0
11:54 am 11:54 Sunny 61 16.1 34 1.1 36 36 E 6 9 29.85 1011 10 16.0934 0 0
12:54 pm 12:54 Sunny 63 17.2 33 0.6 33 33 VRB 3 6 29.83 1010 10 16.0934 0 0
1:54 pm 13:54 Sunny 66 18.9 32 0 28 28 ESE 8 13 29.8 1009 10 16.0934 0 0
2:54 pm 14:54 Sunny 67 19.4 30 -1.1 25 25 ESE 10 17 29.78 1008 10 16.0934 0 0
3:54 pm 15:54 Sunny 67 19.4 29 -1.7 24 24 ESE 6 9 29.77 1008 10 16.0934 0 0
4:54 pm 16:54 Sunny 66 18.9 30 -1.1 26 26 SE 9 15 29.79 1009 10 16.0934 0 0
5:54 pm 17:54 Sunny 60 15.6 30 -1.1 32 32 SE 7 11 29.79 1009 10 16.0934 0 0
6:54 pm 18:54 Clear 57 13.9 30 -1.1 36 36 ESE 5 7 29.8 1009 10 16.0934 0 0
7:54 pm 19:54 Clear 47 8.3 30 -1.1 52 52 Calm 29.82 1010 10 16.0934 0 0
8:54 pm 20:54 Clear 44 6.7 30 -1.1 58 58 Calm 29.82 1010 10 16.0934 0 0
9:54 pm 21:54 Clear 41 5 30 -1.1 65 65 Calm 29.82 1010 10 16.0934 0 0
10:54 pm 22:54 Clear 43 6.1 31 -0.6 63 63 Calm 29.82 1010 10 16.0934 0 0
11:54 pm 23:54 Clear 42 5.6 31 -0.6 65 65 Calm 29.83 1010 10 16.0934 0 0

Powered by AerisWeather